Weather History for Douglas, WY

Change the Weather History Date:

Friday, December 7, 2012

  Actual Average Record
Temperature  
Mean Temperature 28 °F 24 °F  
Max Temperature 40 °F 38 °F 57 °F (2003)
Min Temperature 15 °F 12 °F -21 °F (2005)
Degree Days  
Heating Degree Days 37 40  
Month to date heating degree days 166 277  
Since 1 July heating degree days 1713 2099  
Cooling Degree Days 0 0  
Month to date cooling degree days 0 0  
Year to date cooling degree days 831 486  
Moisture  
Dew Point 18 °F    
Average Humidity 62    
Maximum Humidity 84    
Minimum Humidity 40    
Precipitation  
Precipitation T in 0.01 in 0.13 in (2007)
Month to date precipitation T 0.10  
Year to date precipitation 5.26 13.09  
Sea Level Pressure  
Sea Level Pressure 29.92 in    
Wind  
Wind Speed 9 mph (WNW)    
Max Wind Speed 24 mph    
Max Gust Speed 30 mph    
Visibility 10 miles    
Events      
T = Trace of Precipitation, MM = Missing Value Source: NWS Daily Summary

Daily Weather History Graph

Daily Weather History Graph

Search for Another Location

Airport:

Trip Planner

Search our weather history database for the weather conditions in past years. The results will help you decide how hot, cold, wet, or windy it might be!

Date:

Astronomy

Dec. 07, 2012 Rise Set
Actual Time 7:19 AM MST 4:27 PM MST
Civil Twilight 6:47 AM MST 4:59 PM MST
Nautical Twilight 6:11 AM MST 5:34 PM MST
Astronomical Twilight 5:37 AM MST 6:09 PM MST
Moon 12:33 AM MST (12/7) 12:32 PM MST (12/7)
Length of Visible Light 10h 12m
Length of Day
9h 08m
Last Quarter, 38% of the Moon is Illuminated
Dec 7
Last Quarter
Dec 13
New
Dec 19
First Quarter
Dec 28
Full
Jan 4
Last Quarter

Hourly Weather History & Observations

Time (MST) Temp. Windchill Dew Point Humidity Pressure Visibility Wind Dir Wind Speed Gust Speed Precip Events Conditions
12:53 AM 21.9 °F - 17.1 °F 82% 29.81 in 10.0 mi Calm Calm - N/A   Clear
1:53 AM 21.0 °F 16.2 °F 17.1 °F 85% 29.83 in 10.0 mi North 3.5 mph - N/A   Clear
2:53 AM 26.1 °F 16.8 °F 19.0 °F 75% 29.83 in 10.0 mi NW 9.2 mph - N/A   Clear
3:53 AM 27.0 °F 16.1 °F 21.0 °F 78% 29.86 in 10.0 mi WNW 12.7 mph - N/A   Mostly Cloudy
4:53 AM 27.0 °F 15.6 °F 21.9 °F 81% 29.90 in 10.0 mi NW 13.8 mph 24.2 mph N/A   Mostly Cloudy
5:03 AM 26.6 °F 14.7 °F 21.2 °F 80% 29.85 in 10.0 mi NW 15.0 mph - N/A   Mostly Cloudy
5:53 AM 28.0 °F 16.1 °F 21.9 °F 78% 29.94 in 10.0 mi NW 16.1 mph - N/A   Overcast
6:53 AM 26.1 °F 16.8 °F 21.0 °F 81% 29.97 in 10.0 mi WNW 9.2 mph - 0.00 in   Overcast
7:03 AM 24.8 °F 15.3 °F 19.4 °F 80% 29.90 in 10.0 mi WNW 9.2 mph - N/A   Overcast
7:53 AM 27.0 °F 18.0 °F 21.9 °F 81% 29.98 in 10.0 mi WNW 9.2 mph - N/A   Overcast
8:53 AM 30.0 °F 21.1 °F 23.0 °F 75% 29.99 in 10.0 mi West 10.4 mph - N/A   Overcast
9:53 AM 34.0 °F 26.6 °F 21.9 °F 61% 29.97 in 10.0 mi West 9.2 mph - N/A   Mostly Cloudy
10:53 AM 36.0 °F 29.0 °F 19.9 °F 52% 29.96 in 10.0 mi WNW 9.2 mph - N/A   Mostly Cloudy
11:53 AM 37.9 °F 28.5 °F 17.1 °F 43% 29.94 in 10.0 mi WNW 17.3 mph - N/A   Scattered Clouds
12:53 PM 37.9 °F 28.9 °F 16.0 °F 41% 29.94 in 10.0 mi West 16.1 mph - N/A   Clear
1:53 PM 37.9 °F 29.6 °F 16.0 °F 41% 29.94 in 10.0 mi WNW 13.8 mph - N/A   Clear
2:53 PM 37.9 °F 27.6 °F 15.1 °F 39% 29.92 in 10.0 mi West 20.7 mph 29.9 mph N/A   Clear
3:25 PM 32.0 °F 23.6 °F 21.2 °F 64% 29.89 in 10.0 mi North 10.4 mph - N/A   Mostly Cloudy
3:53 PM 32.0 °F 25.6 °F 19.0 °F 59% 29.96 in 10.0 mi NNW 6.9 mph - N/A   Partly Cloudy
4:53 PM 28.0 °F 20.8 °F 18.0 °F 66% 29.98 in 10.0 mi WSW 6.9 mph - N/A   Clear
7:53 PM 19.9 °F 10.1 °F 14.0 °F 78% 30.01 in 10.0 mi SE 8.1 mph - N/A   Clear
8:53 PM 19.9 °F 12.1 °F 14.0 °F 78% 29.98 in 10.0 mi SE 5.8 mph - N/A   Scattered Clouds
9:53 PM 18.0 °F 7.7 °F 12.9 °F 81% 29.95 in 10.0 mi South 8.1 mph - N/A   Clear
10:53 PM 18.0 °F 9.8 °F 12.9 °F 81% 29.91 in 10.0 mi SE 5.8 mph - N/A   Clear
11:53 PM 19.9 °F 10.1 °F 12.9 °F 74% 29.86 in 10.0 mi South 8.1 mph - N/A   Clear